Temperature
7 5 5 6 7 7 7 7 7 8 9 9 8 7 8 9 9 8 8 8 8 8 8 8 8 8 9 9 9 9 9 9 10 10 10 11 11 11 11 11 11 11 12 12
5 6 7 8 8 8 7 7 7 8 9 8 8 7 8 8 8 8 8 8 8 8 8 8 8 8 8 8 8 8 8 9 9 9 9 9 10 10 10 10 11 11 11 11
5 6 8 8 7 7 7 7 7 7 8 8 7 7 7 8 8 8 8 7 7 7 7 7 7 7 7 7 7 7 7 8 8 8 8 9 9 9 10 10 10 10 10 10
6 7 7 7 7 7 7 8 8 7 6 6 7 6 7 7 7 6 7 7 7 7 7 6 6 7 7 7 7 7 7 7 7 8 8 8 8 8 9 9 9 9 10 10
6 6 7 7 7 7 7 8 7 7 6 6 6 6 6 7 6 6 6 6 7 6 6 6 6 6 6 6 6 6 7 7 7 7 7 8 8 8 8 8 8 9 9 9
6 7 7 7 7 8 8 7 7 6 5 6 6 5 6 6 6 6 6 6 6 6 6 6 6 6 6 6 6 6 6 7 7 7 7 7 7 7 7 8 8 8 8 9
6 6 7 7 7 7 7 5 5 5 5 5 6 6 6 6 6 6 6 6 6 6 6 6 5 5 5 6 6 6 6 6 6 7 7 6 7 7 7 7 7 7 7 8
5 5 6 7 7 7 7 6 5 6 6 5 6 6 6 7 7 7 7 7 6 6 6 5 5 5 5 5 5 5 6 6 6 6 6 6 6 6 6 6 6 7 7 7
5 5 7 7 7 7 7 6 6 5 5 5 5 5 6 6 6 6 6 6 6 6 6 5 5 5 5 5 5 5 5 5 5 6 6 6 6 6 6 6 6 6 6 6
6 6 7 7 7 7 7 6 5 5 6 6 5 5 5 6 6 6 5 6 6 6 5 5 5 5 5 5 4 4 5 5 5 5 5 5 5 5 5 6 6 6 6 6
6 5 6 6 6 6 6 6 6 5 5 5 5 5 6 6 6 6 6 7 7 6 6 5 5 5 5 4 4 4 4 4 4 4 5 5 5 5 5 5 5 5 5 5
6 5 5 6 6 7 6 6 5 5 5 4 4 5 7 6 6 6 7 7 7 6 6 6 5 5 5 4 4 4 4 4 4 4 4 4 4 4 4 4 4 5 5 5
6 5 4 5 6 6 6 6 6 5 5 4 4 5 6 6 6 7 7 7 7 6 6 6 5 5 5 4 4 4 4 4 4 4 4 4 4 4 4 4 4 4 4 4
6 4 4 5 6 6 5 6 6 5 4 4 4 5 6 6 5 6 7 7 7 6 6 6 5 5 5 4 4 4 3 3 3 3 3 3 3 3 3 3 4 4 4 4
5 4 4 4 5 5 5 6 6 5 5 4 5 5 6 6 5 7 7 7 6 6 6 6 5 5 5 4 4 4 4 3 3 3 3 3 3 3 3 3 3 3 3 3
4 4 4 4 5 5 5 5 6 6 6 5 5 6 6 7 7 7 7 6 6 6 6 6 5 5 5 5 4 4 3 3 3 3 3 3 2 2 2 2 2 2 2 2
3 4 4 3 4 5 5 6 6 5 5 5 6 6 6 6 6 7 7 7 7 7 6 6 6 5 5 4 4 4 3 3 3 3 3 2 2 2 2 2 2 2 2 2
3 4 4 3 4 4 6 7 6 6 6 6 6 6 6 6 7 8 8 7 7 7 7 6 6 5 5 4 4 4 3 3 3 3 2 2 2 2 2 1 1 1 1 1
3 4 4 3 3 4 6 6 6 6 6 6 6 6 6 7 6 7 8 8 7 7 7 6 6 5 5 4 4 4 3 3 3 3 2 2 2 1 1 1 1 1 1 0
3 3 3 3 4 5 7 7 7 7 6 7 6 6 6 6 4 6 8 7 7 7 6 6 6 5 5 4 4 4 3 3 3 2 2 2 1 1 1 1 1 0 0 -0
3 3 3 3 3 4 5 6 7 6 7 8 8 7 7 5 6 8 7 7 7 6 6 6 5 5 5 4 4 3 3 3 3 2 2 1 1 1 1 0 0 -0 -0 -0
3 2 2 2 3 4 6 5 5 6 8 8 8 8 8 7 7 7 7 7 6 6 6 5 5 5 4 4 4 3 3 3 2 2 1 1 1 0 0 -0 -0 -0 -1 -1
2 3 3 3 5 6 7 7 8 8 8 8 8 8 7 7 7 7 7 6 6 6 5 5 5 4 4 4 3 3 3 2 2 1 1 1 0 0 -0 -0 -1 -1 -1 -1
2 3 2 2 3 5 7 8 8 8 8 8 8 7 7 7 7 6 6 6 5 5 5 5 4 4 4 4 3 3 2 2 2 1 1 0 0 -0 -0 -1 -1 -1 -2 -2
2 2 2 2 3 5 7 8 8 8 8 7 7 7 7 6 6 6 6 5 5 5 4 4 4 4 4 3 3 3 2 2 1 1 0 0 -0 -1 -1 -1 -2 -2 -2 -3
2 3 3 4 5 4 6 8 8 7 7 7 6 6 6 6 5 5 5 5 5 4 4 4 4 3 3 3 3 2 2 1 1 0 0 -0 -1 -1 -1 -2 -2 -3 -3 -3
Wind_Speed
6 7 5 2 2 4 5 5 4 2 2 2 3 4 5 3 2 2 0 0 1 2 3 3 4 6 7 7 8 7 7 7 6 4 4 4 4 5 4 5 6 7 7 6
7 6 2 1 3 5 6 6 3 2 1 1 1 4 4 3 3 3 3 1 0 2 4 5 5 6 6 7 8 8 7 7 6 4 4 4 4 4 4 4 5 7 7 6
7 1 2 4 6 7 5 4 3 2 2 3 2 5 2 1 2 2 2 2 0 1 3 4 5 6 6 7 8 8 8 8 7 6 4 4 3 3 3 4 5 5 6 6
6 4 5 6 5 5 3 1 3 3 3 2 1 2 5 2 1 1 2 1 1 2 2 3 5 6 6 7 7 7 8 8 7 6 4 4 3 4 5 5 5 6 6 6
4 3 5 5 3 3 2 1 3 2 2 2 1 2 6 2 3 4 4 3 2 2 2 3 4 5 6 6 6 7 7 7 7 6 5 4 4 4 4 4 5 5 5 5
3 2 2 1 2 2 2 4 4 4 3 2 4 4 5 3 5 4 3 3 3 3 3 3 4 4 5 5 6 6 7 7 7 7 6 5 5 5 5 5 5 5 4 4
5 4 2 2 3 4 4 4 3 3 2 4 2 3 6 5 4 5 4 4 3 3 2 3 4 5 5 6 6 6 7 7 8 7 6 6 5 5 4 5 5 5 4 4
3 3 2 1 1 1 1 4 4 3 3 4 2 5 6 4 2 3 4 4 3 2 2 3 3 4 4 5 5 5 6 7 7 7 6 5 5 4 4 4 4 4 4 5
1 2 2 1 1 2 2 1 3 3 0 2 5 5 5 2 1 2 3 4 4 3 3 3 3 3 4 4 4 4 5 6 7 6 6 5 6 5 5 5 4 4 4 4
1 1 3 2 1 1 1 2 3 2 1 3 5 5 5 6 6 5 5 5 5 4 3 3 3 3 3 3 3 3 4 4 5 6 5 5 6 6 5 5 5 5 6 5
2 1 2 1 2 3 1 1 2 2 2 3 4 7 5 7 7 7 7 6 5 5 4 4 3 2 2 3 3 3 4 4 5 6 5 6 6 6 6 6 6 6 6 6
1 2 2 4 3 3 4 4 4 3 3 3 3 7 5 5 5 6 6 5 5 5 4 3 3 1 1 2 2 3 3 4 4 5 5 5 6 6 6 6 6 6 6 7
1 2 1 4 3 1 2 3 3 3 2 3 4 7 3 1 3 5 5 6 5 5 4 3 2 2 2 1 1 2 2 3 3 3 4 5 6 6 7 6 6 6 6 6
2 2 5 6 5 3 4 5 4 5 4 5 8 9 7 5 5 6 6 6 6 5 5 4 3 3 2 2 1 1 2 2 2 3 4 5 5 5 5 6 6 6 6 6
2 2 4 8 8 6 8 10 9 10 9 9 9 9 11 8 8 8 7 6 6 5 5 5 5 4 3 2 1 1 1 2 2 3 4 4 4 4 5 6 6 6 7 7
1 2 3 6 6 7 10 12 12 12 12 13 12 14 10 7 6 6 7 7 7 7 6 6 5 4 4 3 2 1 0 1 2 2 3 3 4 4 5 5 6 6 7 7
1 1 2 5 6 6 9 11 12 8 8 10 14 12 6 6 7 8 8 8 8 8 7 6 6 5 5 4 4 3 2 1 2 2 2 3 3 4 5 5 6 6 6 6
3 2 2 4 5 6 8 4 6 8 9 11 10 8 8 9 8 7 7 8 8 7 7 6 6 5 4 4 4 3 3 2 2 1 2 2 3 3 4 5 5 5 4 4
7 4 2 2 4 9 9 5 5 6 7 9 12 10 7 4 1 4 6 7 8 7 7 6 6 5 4 5 5 5 3 2 2 1 1 1 2 2 3 4 4 3 3 4
4 4 3 2 4 7 7 2 2 3 6 5 7 7 5 4 3 6 5 4 5 5 5 5 4 4 5 5 6 6 4 3 3 2 1 0 1 1 2 2 2 2 2 3
3 4 6 7 7 10 8 3 4 3 6 3 4 6 6 8 8 5 3 4 4 4 4 5 5 5 5 5 6 6 5 5 4 3 2 1 1 1 1 1 1 2 2 3
9 7 7 6 7 10 5 6 7 9 3 3 4 5 7 7 5 4 4 5 5 4 4 5 5 5 4 6 7 6 6 5 3 3 2 1 1 0 1 1 2 2 2 3
9 10 7 11 12 7 6 9 7 5 5 5 5 6 6 6 6 6 5 5 5 6 5 5 6 5 5 6 7 7 6 4 4 4 3 2 1 1 1 1 1 2 2 2
6 6 6 8 12 11 10 9 8 7 8 8 7 6 6 7 7 6 6 5 5 5 6 5 6 6 6 6 7 7 5 5 5 4 3 2 2 1 1 1 1 0 1 1
8 5 6 9 10 8 9 10 10 8 7 7 6 6 6 7 7 7 6 6 6 6 5 6 7 8 7 6 6 6 6 6 6 5 4 3 2 2 1 0 1 1 2 2
9 11 9 12 10 8 8 6 6 7 8 8 7 6 6 7 8 7 7 6 6 6 5 5 6 7 6 6 6 6 6 6 6 5 4 3 2 2 1 1 1 2 2 3
Wind_Direction
36 65 74 104 123 142 131 121 123 171 174 156 204 245 265 263 184 187 201 17 1 330 332 358 0 359 356 350 344 333 328 324 326 325 318 308 300 296 295 288 290 288 281 272
53 50 6 47 73 79 91 98 87 55 55 139 242 274 262 228 192 185 168 172 271 342 352 353 357 355 348 340 338 336 332 324 319 309 297 279 279 278 280 292 298 294 287 278
86 13 5 66 63 82 68 112 132 131 14 17 16 322 286 266 138 128 146 167 192 336 330 332 341 343 341 339 334 332 328 326 320 310 306 307 301 297 303 311 306 301 299 288
58 17 53 63 48 75 76 61 119 104 74 309 100 285 278 246 229 229 226 216 245 300 314 326 334 335 335 331 329 329 330 331 326 323 324 313 301 288 283 294 295 297 298 293
56 31 52 59 29 69 139 61 88 92 92 347 263 191 278 246 238 249 238 231 240 272 293 311 316 316 324 329 332 331 333 334 332 328 326 316 305 291 293 298 300 303 303 302
52 26 54 59 19 58 80 50 50 51 66 300 227 183 268 239 226 238 235 237 251 272 286 297 306 316 323 330 336 338 339 338 338 337 335 328 313 312 317 318 315 316 316 315
16 5 2 28 48 26 59 77 49 10 357 263 231 194 248 246 231 215 220 231 243 257 275 297 316 323 324 329 338 340 342 341 341 343 346 342 332 324 322 323 323 324 324 325
55 336 308 341 157 170 163 134 148 185 231 285 298 233 251 251 235 200 196 210 228 245 270 291 308 314 319 328 337 340 343 342 345 350 351 349 350 345 340 336 332 332 324 319
100 285 293 261 252 144 139 164 168 135 238 282 277 276 292 212 229 212 216 217 227 237 251 274 304 318 322 327 330 334 341 343 348 352 354 357 358 358 351 348 349 343 334 330
138 268 283 304 32 4 151 142 94 121 175 278 289 266 248 236 237 237 237 234 236 239 247 260 280 303 314 323 328 342 352 354 353 355 359 5 2 359 357 1 1 354 346 345
75 118 307 328 220 205 162 174 148 157 183 196 280 273 230 219 218 221 232 230 226 231 238 247 258 273 300 329 343 353 353 358 360 0 3 5 4 5 9 13 8 5 4 2
79 125 257 262 265 208 190 196 163 172 235 207 229 271 265 223 220 215 226 230 226 228 230 233 237 255 297 325 343 352 352 358 359 359 5 8 9 10 13 13 7 8 13 12
76 104 8 339 329 337 246 225 192 171 176 200 217 265 294 231 231 228 230 234 235 235 233 224 224 236 256 285 320 338 348 355 356 3 11 14 14 14 14 12 10 11 15 17
106 167 187 211 227 218 247 247 212 177 203 230 233 256 273 261 252 251 244 235 230 235 226 217 221 229 238 236 239 306 342 358 5 12 20 19 14 14 13 13 14 15 16 22
97 238 249 253 255 245 240 241 225 216 215 223 244 246 257 243 235 239 236 228 228 236 229 222 220 224 228 227 221 213 359 9 24 32 28 17 11 17 19 18 17 19 22 25
74 255 284 280 266 259 260 248 231 229 229 237 255 268 256 241 231 236 231 221 226 231 228 222 218 217 216 213 206 190 159 45 56 52 32 18 20 22 21 19 20 23 23 22
263 247 298 280 305 320 271 237 214 212 212 209 234 246 249 243 237 232 227 223 226 227 221 215 213 215 215 205 191 186 182 136 91 66 35 24 28 29 22 22 24 22 19 21
193 195 243 292 340 263 247 244 198 216 235 216 227 240 228 231 234 234 219 215 225 223 217 215 209 208 206 192 180 171 152 138 116 73 34 22 32 32 26 27 23 15 15 20
186 182 238 273 287 280 288 259 195 202 264 230 229 241 239 239 285 280 236 214 218 217 211 208 203 196 187 185 176 158 154 147 132 112 34 15 37 42 33 26 13 9 18 19
161 172 200 221 257 259 257 266 158 109 280 256 210 222 217 156 225 261 240 215 220 217 203 196 185 176 183 189 169 162 171 170 188 199 197 108 69 69 44 20 9 4 16 17
157 194 213 223 243 267 257 231 128 182 251 251 193 202 188 194 216 237 226 219 216 211 201 186 178 187 198 184 168 176 184 201 206 187 165 140 115 123 90 44 25 16 21 22
188 190 202 194 218 253 229 157 190 222 243 224 211 208 209 223 238 238 228 225 218 211 203 188 187 202 199 179 176 188 205 208 181 165 159 159 151 98 75 66 32 31 33 27
207 200 196 202 221 238 203 208 229 213 223 227 221 224 216 225 234 237 236 230 223 216 210 199 195 203 205 192 186 199 211 183 165 160 168 174 149 81 61 70 47 30 27 26
255 211 213 246 254 250 249 246 248 230 229 236 230 226 215 226 237 241 242 237 230 223 217 205 196 206 216 207 201 204 191 172 165 171 180 176 163 139 61 45 40 50 350 340
236 222 228 251 265 280 264 240 238 239 236 238 239 229 225 230 239 235 237 238 233 229 221 207 206 213 219 208 204 199 182 168 172 179 181 178 177 177 178 244 263 262 248 249
212 211 217 243 235 223 251 246 234 232 237 234 234 241 236 226 234 236 238 236 231 229 223 219 216 215 215 201 201 195 181 173 174 182 186 185 183 186 186 214 318 324 316 335
Height
1496 1502 1506 1505 1505 1505 1508 1511 1513 1513 1511 1513 1515 1515 1512 1511 1511 1511 1511 1511 1511 1510 1510 1508 1507 1505 1502 1500 1498 1496 1494 1493 1491 1490 1488 1487 1486 1486 1485 1485 1485 1486 1486 1486
1504 1507 1506 1504 1504 1505 1508 1512 1514 1513 1512 1513 1515 1514 1511 1509 1509 1509 1509 1510 1509 1509 1507 1506 1504 1502 1500 1498 1495 1493 1491 1489 1488 1486 1485 1483 1482 1481 1481 1481 1480 1481 1481 1482
1508 1510 1506 1506 1507 1508 1512 1514 1515 1515 1515 1514 1516 1516 1511 1508 1508 1508 1508 1508 1508 1507 1506 1504 1502 1500 1498 1495 1493 1490 1488 1486 1485 1483 1481 1480 1479 1477 1476 1476 1476 1476 1476 1477
1510 1509 1508 1509 1510 1511 1516 1513 1513 1515 1520 1523 1520 1525 1513 1509 1508 1508 1507 1506 1506 1506 1504 1502 1500 1498 1495 1493 1490 1488 1486 1483 1481 1480 1478 1476 1474 1473 1472 1472 1471 1471 1471 1471
1514 1512 1512 1513 1514 1513 1515 1513 1514 1516 1519 1523 1521 1525 1516 1509 1509 1507 1506 1505 1504 1504 1502 1500 1498 1496 1493 1491 1488 1485 1483 1481 1479 1477 1475 1473 1472 1470 1469 1469 1468 1467 1466 1466
1514 1514 1514 1514 1514 1513 1514 1515 1517 1520 1523 1525 1519 1524 1517 1511 1506 1504 1503 1503 1502 1502 1500 1499 1496 1493 1491 1488 1485 1483 1480 1478 1476 1474 1472 1470 1469 1467 1466 1465 1464 1463 1462 1462
1519 1517 1515 1515 1515 1516 1517 1523 1530 1529 1530 1526 1517 1519 1515 1504 1502 1501 1501 1501 1501 1500 1498 1496 1494 1491 1488 1485 1483 1480 1478 1476 1473 1471 1469 1467 1466 1465 1463 1462 1460 1459 1458 1457
1525 1525 1518 1516 1517 1517 1518 1522 1530 1529 1528 1527 1517 1517 1509 1501 1499 1499 1499 1499 1499 1498 1497 1495 1492 1489 1486 1484 1481 1478 1476 1473 1471 1469 1467 1465 1464 1462 1461 1460 1458 1457 1455 1454
1525 1524 1517 1516 1515 1516 1517 1521 1521 1527 1528 1529 1522 1514 1504 1500 1499 1498 1497 1497 1496 1496 1495 1493 1490 1488 1485 1482 1480 1477 1475 1472 1470 1468 1466 1464 1462 1460 1459 1457 1456 1454 1453 1452
1522 1523 1519 1517 1516 1516 1517 1518 1524 1527 1526 1525 1521 1516 1508 1499 1497 1496 1495 1495 1494 1494 1493 1491 1489 1487 1484 1482 1479 1476 1474 1471 1469 1466 1464 1462 1461 1459 1458 1456 1454 1452 1451 1450
1521 1525 1522 1519 1518 1518 1519 1519 1521 1525 1526 1526 1524 1514 1496 1494 1492 1493 1492 1492 1492 1491 1490 1489 1487 1485 1483 1481 1478 1475 1473 1470 1468 1465 1463 1462 1460 1458 1457 1455 1453 1451 1450 1448
1521 1525 1526 1521 1516 1514 1516 1516 1519 1525 1524 1525 1526 1513 1490 1490 1489 1490 1490 1490 1489 1489 1488 1487 1486 1484 1482 1480 1477 1475 1472 1470 1467 1465 1463 1461 1459 1458 1456 1454 1452 1450 1449 1447
1520 1525 1528 1523 1521 1517 1515 1514 1515 1518 1521 1524 1524 1509 1490 1489 1489 1488 1488 1488 1487 1487 1486 1485 1484 1482 1480 1478 1476 1474 1472 1469 1467 1465 1463 1461 1459 1457 1455 1453 1451 1449 1448 1446
1520 1524 1527 1523 1517 1516 1515 1513 1512 1516 1521 1520 1512 1501 1491 1489 1488 1487 1486 1485 1485 1484 1483 1482 1481 1480 1479 1477 1475 1473 1471 1469 1467 1465 1463 1460 1458 1457 1455 1453 1451 1449 1447 1445
1520 1523 1520 1517 1513 1512 1510 1508 1507 1509 1509 1510 1500 1496 1487 1485 1485 1483 1483 1482 1482 1481 1480 1480 1479 1478 1477 1475 1474 1472 1470 1468 1466 1464 1462 1460 1458 1456 1454 1453 1451 1449 1447 1445
1521 1522 1519 1516 1509 1508 1505 1500 1499 1499 1498 1497 1494 1489 1480 1480 1480 1480 1479 1479 1478 1478 1477 1477 1476 1475 1474 1473 1472 1470 1469 1467 1465 1463 1461 1459 1457 1456 1454 1452 1450 1448 1446 1444
1522 1522 1520 1519 1512 1506 1501 1488 1489 1489 1486 1488 1488 1480 1476 1477 1477 1476 1475 1475 1474 1474 1474 1474 1473 1473 1472 1471 1470 1469 1467 1466 1464 1462 1461 1459 1457 1455 1453 1451 1450 1448 1446 1444
1520 1520 1520 1519 1516 1511 1488 1478 1479 1481 1478 1477 1475 1473 1472 1472 1471 1471 1471 1471 1471 1471 1471 1471 1470 1470 1469 1469 1468 1467 1466 1464 1463 1461 1460 1458 1456 1454 1453 1451 1449 1447 1445 1443
1515 1517 1519 1520 1518 1504 1484 1477 1476 1478 1475 1470 1470 1469 1469 1469 1470 1468 1468 1467 1468 1468 1468 1468 1468 1467 1467 1466 1466 1465 1464 1463 1461 1460 1458 1457 1455 1453 1452 1450 1448 1446 1444 1443
1513 1515 1519 1518 1513 1499 1479 1473 1472 1476 1475 1465 1464 1465 1466 1468 1472 1467 1464 1464 1465 1465 1465 1464 1464 1464 1463 1463 1463 1462 1461 1460 1459 1458 1457 1455 1454 1452 1451 1449 1447 1445 1443 1442
1514 1515 1515 1514 1511 1493 1475 1472 1473 1480 1471 1463 1462 1462 1463 1464 1464 1463 1462 1462 1462 1461 1461 1461 1461 1461 1460 1460 1460 1459 1458 1458 1457 1456 1455 1454 1452 1451 1449 1448 1446 1444 1442 1441
1506 1510 1510 1509 1507 1491 1468 1470 1471 1467 1461 1460 1460 1460 1460 1459 1459 1459 1459 1458 1458 1458 1458 1458 1457 1457 1457 1457 1457 1456 1455 1455 1455 1454 1453 1452 1451 1450 1448 1447 1445 1443 1441 1439
1496 1492 1490 1489 1479 1465 1463 1462 1460 1460 1459 1458 1458 1458 1457 1457 1456 1456 1455 1454 1454 1454 1454 1454 1453 1453 1453 1453 1453 1453 1453 1453 1452 1452 1451 1450 1449 1448 1446 1445 1443 1441 1440 1438
1486 1481 1482 1478 1465 1460 1458 1457 1457 1457 1456 1455 1455 1454 1453 1452 1452 1451 1451 1450 1450 1449 1449 1449 1449 1449 1449 1449 1449 1449 1449 1449 1449 1448 1448 1447 1447 1445 1444 1443 1441 1440 1438 1436
1479 1476 1475 1469 1459 1456 1452 1451 1451 1451 1451 1451 1450 1450 1449 1448 1447 1447 1446 1445 1445 1445 1444 1444 1444 1444 1444 1444 1445 1445 1445 1445 1445 1445 1445 1444 1444 1443 1442 1441 1439 1438 1436 1434
1465 1466 1466 1457 1451 1451 1447 1446 1447 1446 1446 1446 1445 1444 1444 1444 1442 1442 1441 1441 1440 1440 1439 1439 1439 1439 1439 1440 1440 1441 1441 1441 1441 1441 1441 1441 1440 1440 1439 1438 1437 1435 1434 1432